Flag for Laos Weather past 2 weeks in Vientiane, Laos

Now
77 °F

Fog.


Feels Like: 78 °F
Forecast: 72 / 91 °F
Wind: 2 mph from East

Location: Vientiane Airport

Current Time: Oct 23, 2014 at 8:45:06 AM

Latest Report: Oct 23, 2014 at 8:00 AM


Visibility: 3 mi

Pressure: 29.95 "Hg

Humidity: 83%

Dew point: 72 °F

Location of VientianeLocation

Historic Weather in Vientiane — Graph

°F

Vientiane temperature yesterday

Maximum temperature yesterday: 95 °F (at 3:00 PM)
Minimum temperature yesterday: 73 °F (at 11:00 PM)
Average temperature yesterday: 85 °F

Past Weeks' High & Low Weather Summary

 TemperatureHumidityPressure
High95 °F (Oct 22, 3:00 PM)94% (Oct 9, 8:00 AM)30.04 "Hg (Oct 9, 8:00 AM)
Low72 °F (Oct 13, 6:00 AM)43% (Oct 8, 2:00 PM)29.71 "Hg (Oct 10, 4:00 PM)
Average83 °F68%29.89 "Hg
* Reported Oct 8 7:00 AM — Oct 23 7:30 AM, Vientiane, Weather by CustomWeather, © 2014

Note: Actual official high and low records may vary slightly from our data, if they occured in-between our weather recording intervals... More about our weather records

Advertising

Vientiane weather history for previous 24 hours

 ConditionsComfort  
Time TempWeatherWind HumidityBarometerVisibility
7:30 AM
Oct 23
75 °FFog.2 mph89%29.92 "Hg3 mi
7:00 AM75 °FFog.2 mph89%29.92 "Hg3 mi
6:30 AM75 °FFog.5 mph89%29.89 "Hg2 mi
6:00 AM75 °FFog.5 mph89%29.89 "Hg2 mi
11:00 PM
Oct 22
73 °FFog.5 mph89%29.98 "Hg2 mi
10:30 PM75 °FFog.5 mph83%29.95 "Hg2 mi
10:00 PM75 °FFog.5 mph83%29.95 "Hg2 mi
9:30 PM79 °FFog.7 mph84%29.89 "Hg2 mi
9:00 PM79 °FFog.7 mph84%29.89 "Hg2 mi
8:30 PM82 °FFog.5 mph74%29.86 "Hg2 mi
6:30 PM88 °FFog.2 mph59%29.83 "Hg3 mi
6:00 PM90 °FPassing clouds.2 mph55%29.83 "Hg4 mi
5:00 PM91 °FBroken clouds.5 mph52%29.80 "Hg5 mi
4:00 PM90 °FScattered clouds.5 mph52%29.80 "Hg5 mi
3:00 PM95 °FScattered clouds.5 mph44%29.83 "Hg5 mi
2:30 PM93 °FPartly sunny.7 mph49%29.86 "Hg5 mi
2:00 PM93 °FPartly sunny.7 mph49%29.86 "Hg5 mi
1:00 PM91 °FPartly sunny.5 mph56%29.92 "Hg5 mi
12:30 PM91 °FScattered clouds.2 mph52%29.95 "Hg5 mi
12:00 PM91 °FScattered clouds.2 mph52%29.95 "Hg5 mi
11:30 AM90 °FPassing clouds.7 mph55%29.98 "Hg5 mi
11:00 AM90 °FPassing clouds.7 mph55%29.98 "Hg5 mi
10:30 AM88 °FScattered clouds.5 mph59%30.01 "Hg5 mi
10:00 AM88 °FScattered clouds.5 mph59%30.01 "Hg5 mi
9:00 AM82 °FPartly sunny.2 mph70%29.98 "Hg5 mi
8:30 AM82 °FPartly sunny.2 mph70%29.98 "Hg5 mi
8:00 AM81 °FPartly sunny.5 mph74%29.98 "Hg5 mi
Weather by CustomWeather, © 2014

See weather overviewHow to use our weather pages